Location: Croydon
(51.3762°N, 0.0982°W)
Time: 14:19:10
(UTC+00:00)

Altair - Pass Details

Date: 21 November 2019
Orbit: 1502 x 1682 km, 47.2° (Epoch: 09 December)

Event Time Altitude Azimuth Distance (km) Brightness Sun altitude
Rises 05:12:56 0° 263° (W) 4,636 - -20.5°
Reaches altitude 10° 05:15:57 10° 261° (W) 3,654 - -20.0°
Exits shadow 05:19:11 25° 257° (WSW) 2,658 8.2 -19.5°
Maximum altitude 05:25:02 70° 180° (S) 1,596 7.6 -18.6°
Drops below altitude 10° 05:34:17 10° 100° (E) 3,719 10.8 -17.2°
Sets 05:37:23 0° 98° (E) 4,723 11.9 -16.7°
